Time,TemperatureF,DewpointF,PressureIn,WindDirection,WindDirectionDegrees,WindSpeedMPH,WindSpeedGustMPH,Humidity,HourlyPrecipIn,Conditions,Clouds,dailyrainin,SoftwareType,DateUTC
2013-03-26 00:00:00,29.0,19.0,-100.00,North,-999,-999.0,-999.0,67,-99.99,,,0.00,,2013-03-26 07:00:00,
2013-03-26 00:52:00,29.0,19.0,-100.00,North,-999,-999.0,-999.0,67,-99.99,,,0.00,,2013-03-26 07:52:00,
2013-03-26 01:00:00,29.0,18.0,-100.00,ESE,123,1.0,3.0,62,-99.99,,,0.00,,2013-03-26 08:00:00,
2013-03-26 02:00:00,27.0,18.0,-100.00,WNW,303,0.0,1.0,69,-99.99,,,0.00,,2013-03-26 09:00:00,
2013-03-26 03:00:00,27.0,18.0,-100.00,WNW,302,1.0,2.0,70,-99.99,,,0.00,,2013-03-26 10:00:00,
2013-03-26 04:00:00,26.0,18.0,-100.00,NW,306,1.0,2.0,70,-99.99,,,0.00,,2013-03-26 11:00:00,
2013-03-26 05:00:00,25.0,17.0,-100.00,WNW,303,1.0,1.0,71,-99.99,,,0.00,,2013-03-26 12:00:00,
2013-03-26 06:00:00,28.0,20.0,-100.00,WNW,303,0.0,1.0,70,-99.99,,,0.00,,2013-03-26 13:00:00,
2013-03-26 07:00:00,28.0,19.0,-100.00,NNW,327,0.0,1.0,70,-99.99,,,0.01,,2013-03-26 14:00:00,
2013-03-26 08:00:00,31.0,22.0,-100.00,WNW,303,0.0,1.0,70,-99.99,,,0.01,,2013-03-26 15:00:00,
2013-03-26 09:00:00,36.0,25.0,-100.00,ENE,58,0.0,2.0,64,-99.99,,,0.00,,2013-03-26 16:00:00,
2013-03-26 10:00:00,40.0,26.0,-100.00,NE,50,1.0,3.0,57,-99.99,,,0.00,,2013-03-26 17:00:00,
2013-03-26 11:00:00,43.0,26.0,-100.00,SSE,167,1.0,4.0,52,-99.99,,,0.00,,2013-03-26 18:00:00,
2013-03-26 12:00:00,44.0,26.0,-100.00,ESE,111,2.0,5.0,50,-99.99,,,0.00,,2013-03-26 19:00:00,
2013-03-26 12:53:00,44.0,26.0,-100.00,ESE,111,2.0,5.0,50,-99.99,,,0.00,,2013-03-26 19:53:00,
2013-03-26 13:00:00,42.0,24.0,-100.00,ESE,110,2.0,5.0,48,-99.99,,,0.00,,2013-03-26 20:00:00,
2013-03-26 14:00:00,44.0,26.0,-100.00,ESE,122,2.0,5.0,49,-99.99,,,0.00,,2013-03-26 21:00:00,
2013-03-26 14:43:00,44.0,26.0,-100.00,ESE,122,2.0,5.0,49,-99.99,,,0.00,,2013-03-26 21:43:00,
2013-03-26 14:52:00,44.0,26.0,-100.00,ESE,122,2.0,5.0,49,-99.99,,,0.00,,2013-03-26 21:52:00,
2013-03-26 15:00:00,45.0,26.0,-100.00,SW,225,2.0,5.0,48,-99.99,,,0.00,,2013-03-26 22:00:00,
2013-03-26 15:52:00,45.0,26.0,-100.00,SW,225,2.0,5.0,48,-99.99,,,0.00,,2013-03-26 22:52:00,
2013-03-26 16:00:00,43.0,24.0,-100.00,East,82,1.0,4.0,48,-99.99,,,-99.99,,2013-03-26 23:00:00,
2013-03-26 16:43:00,43.0,24.0,-100.00,East,82,1.0,4.0,48,-99.99,,,-99.99,,2013-03-26 23:43:00,
2013-03-26 16:52:00,43.0,24.0,-100.00,East,82,1.0,4.0,48,-99.99,,,-99.99,,2013-03-26 23:52:00,
2013-03-26 17:00:00,41.0,27.0,-100.00,SSE,161,1.0,3.0,55,-99.99,,,-99.99,,2013-03-27 00:00:00,
2013-03-26 17:52:00,41.0,27.0,-100.00,SSE,161,1.0,3.0,55,-99.99,,,-99.99,,2013-03-27 00:52:00,
2013-03-26 18:00:00,41.0,27.0,-100.00,NE,52,0.0,2.0,56,-99.99,,,0.00,,2013-03-27 01:00:00,
2013-03-26 19:00:00,38.0,26.0,-100.00,North,0,0.0,1.0,60,-99.99,,,0.00,,2013-03-27 02:00:00,
2013-03-26 20:00:00,36.0,26.0,-100.00,NNW,330,0.0,1.0,66,-99.99,,,0.00,,2013-03-27 03:00:00,
2013-03-26 21:00:00,35.0,27.0,-100.00,NW,324,0.0,1.0,70,-99.99,,,0.00,,2013-03-27 04:00:00,
2013-03-26 22:00:00,36.0,27.0,-100.00,NNW,339,0.0,0.0,71,-99.99,,,0.00,,2013-03-27 05:00:00,
2013-03-26 22:42:00,36.0,27.0,-100.00,NNW,339,0.0,0.0,71,-99.99,,,0.00,,2013-03-27 05:42:00,
2013-03-26 22:52:00,36.0,27.0,-100.00,NNW,339,0.0,0.0,71,-99.99,,,0.00,,2013-03-27 05:52:00,
2013-03-26 23:00:00,34.0,26.0,-100.00,NW,305,0.0,0.0,70,-99.99,,,0.00,,2013-03-27 06:00:00,
2013-03-26 23:42:00,35.0,26.0,-100.00,NW,305,0.0,0.0,70,-99.99,,,0.00,,2013-03-27 06:42:00,
2013-03-26 23:53:00,34.0,26.0,-100.00,NW,305,0.0,0.0,70,-99.99,,,0.00,,2013-03-27 06:53:00,